Tracking 31027 objects as of 19-Jul-2025
HD Live streaming from Space Station
objects crossing your sky now

ESSA 3 (TOS-A)

Track ESSA 3 (TOS-A) now!
10-day predictions
ESSA 3 (TOS-A) is classified as:


NORAD ID: 2435
Int'l Code: 1966-087A
Perigee: 1,393.1 km
Apogee: 1,493.0 km
Inclination: 101.1 °
Period: 114.6 minutes
Semi major axis: 7814 km
RCS: 0.8135 m2 (medium)
Launch date: October 2, 1966
Source: United States (US)
Launch site: AIR FORCE WESTERN TEST RANGE (AFWTR)
Your satellite tracking list
NSIGHT-1
Track 1 satellite(s)




NASA's NSSDC Master Catalog

Two Line Element Set (TLE):
1 02435U 66087A   25199.50808877 -.00000048  00000-0 -38054-4 0  9998
2 02435 101.0866 117.1954 0063922 344.5877 189.9991 12.56874809697082
Source of the keplerian elements: AFSPC